[[{"header":{"parameterUnit":"m.s-1","parameterCategory":1,"la1":30.2991,"la2":30.254,"lo1":-89.0895,"lo2":-89.0444,"dy":0.0017,"dx":0.0017,"nx":28,"ny":28,"refTime":"2024-10-01T21:00:00:Z","depth":0,"parameterNumber":2,"parameterNumberName":"U-component_of_WINDS"},"data":[0,0,0,0,0,0,0,0,0,0,0,0,0,0,0,0,0,0,0,0,0,0,0,0,0,0,0,0,0,0,0,0,0,0,0,0,0,0,0,0,0,0,0,0,0,0,0,0,0,0,0,0,0,0,0,0,0,0,-1.3136,-1.3137,0,-1.3199,-1.32,-1.3201,-1.3149,-1.3147,-1.3145,-1.3143,-1.3209,-1.3213,-1.3217,0,0,0,0,0,0,0,0,0,0,0,0,0,-1.2974,-1.2977,-1.3136,-1.3137,-1.3138,-1.3199,-1.32,-1.3201,-1.315,-1.3147,-1.3144,-1.3142,-1.3208,-1.3212,-1.3217,0,0,0,0,0,0,0,0,0,0,0,0,0,-1.3041,-1.2978,-1.3136,-1.312,-1.3119,-1.3199,-1.32,-1.3201,-1.315,-1.3147,-1.3144,-1.3141,-1.3206,-1.3212,-1.3217,-1.3318,0,0,-1.3235,-1.3237,0,0,0,0,0,0,0,0,-1.3038,-1.3047,-1.3121,-1.3121,-1.312,-1.3163,-1.3167,-1.324,-1.3151,-1.3138,-1.3143,-1.3139,-1.3197,-1.3203,-1.3222,-1.3321,-1.3324,-1.3235,-1.3239,-1.3241,-1.3243,0,0,0,0,0,0,0,-1.3033,-1.3045,-1.3161,-1.3123,-1.3122,-1.311,-1.3116,-1.318,-1.3185,-1.3139,-1.3136,-1.3144,-1.3196,-1.3216,-1.3223,-1.3324,-1.3235,-1.324,-1.3244,-1.3246,-1.3509,-1.3513,0,0,0,0,0,0,-1.303,-1.3041,-1.3159,-1.3163,-1.307,-1.3115,-1.3122,-1.3153,-1.3184,-1.3186,-1.3146,-1.3141,-1.3208,-1.3216,-1.3225,-1.3345,-1.3241,-1.3246,-1.325,-1.3506,-1.351,-1.3514,0,0,0,0,0,0,-1.3027,-1.3041,-1.3157,-1.3101,-1.3115,-1.3122,-1.3156,-1.3156,-1.3176,-1.3189,-1.319,-1.3167,-1.3206,-1.3217,-1.3295,-1.3347,-1.3249,-1.3254,-1.3501,-1.3507,-1.3512,-1.3586,0,0,0,0,0,0,-1.3022,-1.304,-1.3078,-1.3102,-1.3118,-1.3226,-1.3159,-1.3159,-1.3186,-1.318,-1.3209,-1.3211,-1.3204,-1.3287,-1.3301,-1.3353,-1.3259,-1.3497,-1.3504,-1.351,-1.3579,-1.3594,-1.3606,0,0,0,0,0,-1.3016,-1.3097,-1.308,-1.3095,-1.3166,-1.3229,-1.3238,-1.3228,-1.319,-1.3229,-1.3237,-1.321,-1.3338,-1.3295,-1.331,-1.3365,-1.3494,-1.3502,-1.351,-1.3573,-1.3591,-1.3606,0,0,0,0,0,0,-1.3079,-1.31,-1.3082,-1.3172,-1.3199,-1.322,-1.3268,-1.3247,-1.3286,-1.3278,-1.3265,-1.3272,-1.3355,-1.3367,-1.3319,-1.3464,-1.341,-1.3422,-1.3453,-1.347,-1.3483,-1.3479,-1.3263,0,0,0,0,0,-1.3103,-1.3152,-1.3167,-1.3246,-1.326,-1.3262,-1.3289,-1.3279,-1.3307,-1.3318,-1.3332,-1.3361,-1.3408,-1.3439,-1.3483,-1.358,-1.3586,-1.3625,-1.3638,-1.3649,-1.366,-1.3713,-1.3731,-1.354,-1.354,-1.354,0,0,-1.3154,-1.3171,-1.3203,-1.3259,-1.3279,-1.333,-1.3272,-1.3329,-1.3368,-1.3327,-1.3402,-1.3413,-1.3444,-1.3532,-1.3572,-1.3545,-1.3714,-1.3659,-1.3668,-1.3673,-1.3723,-1.3742,-1.3758,-1.3546,-1.3545,-1.3544,0,0,-1.3274,-1.3291,-1.3359,-1.3379,-1.3409,-1.341,-1.3426,-1.345,-1.3456,-1.353,-1.3501,-1.3547,-1.3628,-1.3651,-1.3674,-1.3801,-1.3778,-1.3815,-1.3886,-1.3938,-1.3953,-1.3966,-1.4013,-1.403,-1.3825,-1.3826,-1.3826,0,-1.3334,-1.341,-1.3396,-1.3456,-1.3481,-1.3446,-1.3515,-1.3535,-1.3579,-1.3598,-1.3567,-1.3668,-1.3686,-1.3779,-1.381,-1.3829,-1.3848,-1.3813,-1.3951,-1.3965,-1.3977,-1.4022,-1.4039,-1.383,-1.383,-1.3829,-1.3829,0,-1.3483,-1.3536,-1.3587,-1.3629,-1.366,-1.3724,-1.3721,-1.3754,-1.3741,-1.3745,-1.3821,-1.3841,-1.3889,-1.391,-1.3898,-1.4002,-1.3985,-1.3953,-1.3899,-1.4,-1.4042,-1.4059,-1.3837,-1.3835,-1.3834,-1.3833,0,0,-1.3646,-1.3679,-1.3698,-1.3717,-1.3747,-1.3789,-1.385,-1.3896,-1.3926,-1.3956,-1.4009,-1.4077,-1.4048,-1.4073,-1.4064,-1.4109,-1.421,-1.4071,-1.4072,-1.4098,-1.4328,-1.4354,-1.4374,-1.4194,-1.4197,-1.4199,-1.4326,0,-1.3768,-1.3876,-1.3865,-1.3969,-1.4018,-1.3984,-1.4038,-1.4063,-1.4068,-1.4111,-1.4116,-1.4166,-1.4122,-1.4138,-1.4181,-1.4189,-1.4257,-1.4179,-1.4244,-1.4247,-1.424,-1.4395,-1.4423,-1.4542,-1.4342,-1.4345,-1.4347,0,-1.3926,-1.3962,-1.407,-1.4093,-1.4113,-1.4162,-1.4204,-1.4245,-1.4272,-1.4272,-1.43,-1.4282,-1.4345,-1.4288,-1.4375,-1.4323,-1.4348,-1.4356,-1.4361,-1.4368,-1.4305,-1.441,-1.4579,-1.4598,-1.4372,-1.437,-1.4368,0,-1.4037,-1.4112,-1.4187,-1.4203,-1.4231,-1.4267,-1.428,-1.4304,-1.4332,-1.4368,-1.4386,-1.4429,-1.4453,-1.4487,-1.4481,-1.4439,-1.4571,-1.4512,-1.4574,-1.4575,-1.4606,-1.4604,-1.4784,-1.4618,-1.4618,-1.4617,-1.4617,0,-1.4177,-1.4245,-1.4237,-1.4283,-1.4358,-1.4344,-1.4419,-1.4428,-1.4449,-1.4497,-1.447,-1.4515,-1.4504,-1.4549,-1.4544,-1.4618,-1.4629,-1.4632,-1.463,-1.4636,-1.4636,-1.4654,-1.4647,-1.4622,-1.4621,-1.462,-1.4619,0,-1.4315,-1.4312,-1.4391,-1.441,-1.4417,-1.4471,-1.4488,-1.4532,-1.4533,-1.4594,-1.4608,-1.4611,-1.4663,-1.4659,-1.4718,-1.4715,-1.4807,-1.4794,-1.4798,-1.4796,-1.4859,-1.4854,-1.5059,-1.5086,-1.49,-1.4902,-1.4903,0,-1.4405,-1.4457,-1.4481,-1.4511,-1.4526,-1.4574,-1.4603,-1.459,-1.4621,-1.4656,-1.4696,-1.4745,-1.4784,-1.4868,-1.4876,-1.492,-1.491,-1.4979,-1.4917,-1.4921,-1.4914,-1.4912,-1.4918,-1.4992,-1.4994,-1.4996,-1.4997,0,-1.4567,-1.4562,-1.4604,-1.4646,-1.468,-1.4713,-1.4742,-1.4768,-1.4759,-1.4795,-1.4847,-1.4877,-1.4936,-1.4986,-1.5028,-1.5042,-1.5019,-1.5016,-1.5033,-1.5041,-1.5042,-1.5044,-1.4834,-1.5012,-1.5011,-1.501,-1.5009,-1.5008,-1.4685,-1.473,-1.4754,-1.4801,-1.4822,-1.485,-1.4892,-1.4898,-1.4942,-1.4989,-1.4978,-1.5038,-1.5063,-1.5118,-1.5135,-1.5182,-1.5157,-1.5182,-1.5188,-1.5195,-1.5203,-1.5032,-1.5189,-1.5189,-1.5188,-1.5188,-1.5188,0,-1.4847,-1.4861,-1.4904,-1.4946,-1.4984,-1.4956,-1.4987,-1.5021,-1.5073,-1.5098,-1.5137,-1.5197,-1.5245,-1.5256,-1.5301,-1.5336,-1.5327,-1.5349,-1.5348,-1.5352,-1.5221,-1.5203,-1.5356,-1.5356,-1.5356,-1.5356,-1.5356,-1.5356,-1.4936,-1.5011,-1.5009,-1.5093,-1.5106,-1.5163,-1.5183,-1.5209,-1.5229,-1.5298,-1.5337,-1.5343,-1.5363,-1.541,-1.5452,-1.5454,-1.5474,-1.55,-1.5499,-1.5377,-1.5361,-1.5345,-1.5328,-1.5504,-1.5504,-1.5625,-1.5626,-1.5627]},{"header":{"parameterUnit":"m.s-1","parameterCategory":1,"la1":30.2991,"la2":30.254,"lo1":-89.0895,"lo2":-89.0444,"dy":0.0017,"dx":0.0017,"nx":28,"ny":28,"refTime":"2024-10-01T21:00:00:Z","depth":0,"parameterNumber":3,"parameterNumberName":"V-component_of_WINDS"},"data":[0,0,0,0,0,0,0,0,0,0,0,0,0,0,0,0,0,0,0,0,0,0,0,0,0,0,0,0,0,0,0,0,0,0,0,0,0,0,0,0,0,0,0,0,0,0,0,0,0,0,0,0,0,0,0,0,0,0,-3.782,-3.7821,0,-3.7876,-3.7877,-3.7878,-3.7815,-3.7812,-3.781,-3.7808,-3.7862,-3.7866,-3.787,0,0,0,0,0,0,0,0,0,0,0,0,0,-3.7655,-3.7658,-3.782,-3.7821,-3.7822,-3.7876,-3.7877,-3.7878,-3.7815,-3.7812,-3.7809,-3.7807,-3.7861,-3.7866,-3.787,0,0,0,0,0,0,0,0,0,0,0,0,0,-3.772,-3.7659,-3.782,-3.7797,-3.7795,-3.7876,-3.7877,-3.7878,-3.7816,-3.7812,-3.7808,-3.7805,-3.786,-3.7865,-3.7871,-3.7976,0,0,-3.7887,-3.789,0,0,0,0,0,0,0,0,-3.7717,-3.7727,-3.78,-3.7799,-3.7797,-3.7835,-3.7839,-3.7911,-3.7817,-3.7808,-3.7808,-3.7803,-3.7856,-3.7862,-3.788,-3.7979,-3.7981,-3.7888,-3.7891,-3.7894,-3.7895,0,0,0,0,0,0,0,-3.7712,-3.7724,-3.7842,-3.7801,-3.7799,-3.7783,-3.7788,-3.7852,-3.7851,-3.7808,-3.7804,-3.7812,-3.7855,-3.7875,-3.7881,-3.7982,-3.7888,-3.7893,-3.7896,-3.7898,-3.8169,-3.8172,0,0,0,0,0,0,-3.7711,-3.772,-3.784,-3.7844,-3.7747,-3.7788,-3.7794,-3.7826,-3.785,-3.7851,-3.7815,-3.7808,-3.7867,-3.7874,-3.7882,-3.8007,-3.7894,-3.7899,-3.7902,-3.8165,-3.817,-3.8174,0,0,0,0,0,0,-3.7708,-3.7722,-3.7838,-3.7781,-3.7795,-3.7795,-3.7831,-3.7829,-3.7849,-3.7855,-3.7854,-3.7836,-3.7864,-3.7875,-3.7953,-3.8008,-3.7901,-3.7906,-3.816,-3.8166,-3.8172,-3.8258,0,0,0,0,0,0,-3.7703,-3.7721,-3.7762,-3.7782,-3.7798,-3.791,-3.7835,-3.7833,-3.7859,-3.7852,-3.7875,-3.7875,-3.7862,-3.7945,-3.7959,-3.8014,-3.7911,-3.8155,-3.8163,-3.817,-3.825,-3.8266,-3.828,0,0,0,0,0,-3.7697,-3.7784,-3.7765,-3.778,-3.7849,-3.7913,-3.7921,-3.7906,-3.7864,-3.7905,-3.7908,-3.7874,-3.8,-3.7954,-3.7968,-3.8026,-3.8152,-3.8161,-3.8169,-3.8244,-3.8263,-3.8279,0,0,0,0,0,0,-3.7769,-3.7786,-3.7765,-3.7861,-3.7886,-3.7902,-3.7953,-3.7927,-3.7964,-3.7956,-3.7934,-3.794,-3.8023,-3.8032,-3.7981,-3.8129,-3.8069,-3.8081,-3.812,-3.8139,-3.8153,-3.8149,-3.7915,0,0,0,0,0,-3.7796,-3.7848,-3.7859,-3.7942,-3.7956,-3.7953,-3.798,-3.7966,-3.7991,-3.8001,-3.801,-3.8034,-3.8079,-3.8109,-3.8151,-3.8251,-3.8254,-3.8297,-3.8312,-3.8324,-3.8335,-3.8388,-3.8407,-3.8203,-3.8202,-3.8202,0,0,-3.7853,-3.7868,-3.7902,-3.7957,-3.7975,-3.8028,-3.7962,-3.802,-3.8059,-3.8009,-3.8084,-3.8092,-3.8117,-3.8207,-3.8247,-3.8217,-3.8392,-3.8335,-3.8345,-3.8349,-3.8399,-3.8418,-3.8436,-3.8208,-3.8207,-3.8206,0,0,-3.7982,-3.8,-3.8071,-3.809,-3.8118,-3.8115,-3.8132,-3.8152,-3.8156,-3.8231,-3.8195,-3.8239,-3.8317,-3.8337,-3.8357,-3.8494,-3.8464,-3.8508,-3.8585,-3.8637,-3.8653,-3.8667,-3.8716,-3.8734,-3.8519,-3.8519,-3.8519,0,-3.8049,-3.8128,-3.811,-3.8172,-3.8197,-3.8155,-3.8226,-3.8245,-3.8285,-3.8303,-3.8269,-3.8366,-3.838,-3.8474,-3.8507,-3.8525,-3.8543,-3.8506,-3.8652,-3.8666,-3.8679,-3.8725,-3.8744,-3.8524,-3.8523,-3.8523,-3.8522,0,-3.8208,-3.8263,-3.8317,-3.8358,-3.8388,-3.8455,-3.8446,-3.8479,-3.8463,-3.8463,-3.8539,-3.8555,-3.8599,-3.862,-3.8604,-3.8712,-3.8692,-3.8656,-3.8595,-3.8704,-3.8747,-3.8765,-3.8532,-3.853,-3.8528,-3.8527,0,0,-3.8385,-3.8415,-3.8435,-3.8453,-3.8481,-3.8523,-3.8586,-3.863,-3.8659,-3.8687,-3.874,-3.8806,-3.8773,-3.8796,-3.8781,-3.8827,-3.8934,-3.8784,-3.8785,-3.8812,-3.9053,-3.9081,-3.9102,-3.8914,-3.8917,-3.892,-3.9051,0,-3.8515,-3.8627,-3.8613,-3.8719,-3.877,-3.873,-3.8785,-3.8808,-3.8809,-3.8851,-3.8852,-3.89,-3.8852,-3.8866,-3.8909,-3.8912,-3.8982,-3.8902,-3.8962,-3.8964,-3.8957,-3.9124,-3.9154,-3.9277,-3.9068,-3.907,-3.9072,0,-3.8683,-3.8718,-3.883,-3.885,-3.887,-3.8921,-3.8959,-3.9,-3.9024,-3.9022,-3.9048,-3.9025,-3.9087,-3.9025,-3.9111,-3.9057,-3.908,-3.9085,-3.9089,-3.9094,-3.9025,-3.9134,-3.9316,-3.9334,-3.9099,-3.9097,-3.9095,0,-3.8801,-3.8877,-3.8954,-3.897,-3.8995,-3.9031,-3.9042,-3.9063,-3.909,-3.9123,-3.9141,-3.9181,-3.9203,-3.9234,-3.9222,-3.9178,-3.9309,-3.9246,-3.9309,-3.9309,-3.9339,-3.9337,-3.9527,-3.9353,-3.9353,-3.9353,-3.9352,0,-3.8948,-3.9018,-3.9007,-3.9054,-3.9131,-3.9114,-3.919,-3.9196,-3.9215,-3.9262,-3.9229,-3.9274,-3.9255,-3.9298,-3.9289,-3.9361,-3.9371,-3.937,-3.9367,-3.9374,-3.9374,-3.9389,-3.938,-3.9358,-3.9357,-3.9356,-3.9355,0,-3.9094,-3.9089,-3.917,-3.9187,-3.9193,-3.9249,-3.9263,-3.9306,-3.9305,-3.9365,-3.9378,-3.9376,-3.9425,-3.9416,-3.9469,-3.9463,-3.9553,-3.9539,-3.9546,-3.9543,-3.9606,-3.96,-3.9813,-3.9839,-3.9648,-3.965,-3.9651,0,-3.9189,-3.9242,-3.9265,-3.9294,-3.9309,-3.9357,-3.9385,-3.9369,-3.9399,-3.943,-3.947,-3.9516,-3.9552,-3.9632,-3.9634,-3.9675,-3.9662,-3.9733,-3.9668,-3.9672,-3.9663,-3.966,-3.9665,-3.9746,-3.9749,-3.975,-3.9752,0,-3.9357,-3.9352,-3.9394,-3.9436,-3.947,-3.9501,-3.9529,-3.9555,-3.9541,-3.9576,-3.9626,-3.9654,-3.9709,-3.9755,-3.9793,-3.9804,-3.9776,-3.9772,-3.9789,-3.9797,-3.9798,-3.9798,-3.9582,-3.9768,-3.9766,-3.9765,-3.9764,-3.9764,-3.9481,-3.9526,-3.9549,-3.9597,-3.9616,-3.9643,-3.9685,-3.9689,-3.9731,-3.9775,-3.9763,-3.982,-3.9841,-3.9889,-3.9904,-3.9947,-3.9921,-3.9945,-3.9951,-3.9957,-3.9965,-3.9791,-3.9954,-3.9954,-3.9953,-3.9953,-3.9952,0,-3.9648,-3.9661,-3.9705,-3.9745,-3.9782,-3.9753,-3.9782,-3.9815,-3.9866,-3.9889,-3.9925,-3.9982,-4.0027,-4.0033,-4.0074,-4.0108,-4.0096,-4.0119,-4.0117,-4.012,-3.9987,-3.9968,-4.0128,-4.0128,-4.0128,-4.0128,-4.0128,-4.0128,-3.9739,-3.9814,-3.9812,-3.9896,-3.9908,-3.9964,-3.9983,-4.0007,-4.0026,-4.0092,-4.0129,-4.0132,-4.0148,-4.0191,-4.023,-4.023,-4.0247,-4.0275,-4.0271,-4.0147,-4.0129,-4.0112,-4.0095,-4.0279,-4.0279,-4.04,-4.0402,-4.0402]}]]